Regional Weather Roundup
Issued by NWS Sterling, VA

Home | Current Version | Previous Version | Graphics & Text | Print | Product List | Glossary On
Versions: 1 2 3 4 5 6 7 8 9 10 11 12 13 14 15 16 17 18 19 20 21 22 23 24 25 26 27
000
ASUS41 KLWX 191310
RWRLWX

REGIONAL WEATHER ROUNDUP
NATIONAL WEATHER SERVICE BALTIMORE MD/WASHINGTON DC
900 AM EDT SAT APR 19 2014

Note: "FAIR" indicates few or no clouds below 12,000 feet
with no significant weather and/or obstructions to visibility.
 TC=TEMPERATURE CELSIUS

 * =Non NWS site. Station does not report precipitation (e.g. rain,
    snow, etc.), thunder, or fog.

DCZ001-MDZ009-015-VAZ040>042-051-053>054-191400-
WASHINGTON METRO

CITY           SKY/WX    TMP DP  RH WIND       PRES   REMARKS
WASHINGTON NAT CLOUDY    50  39  66 E6        30.31R
DULLES         PTSUNNY   47  38  71 N6        30.30S
ANDREWS AFB    CLOUDY    48  39  70 NE2       30.30R
FT BELVOIR     CLOUDY    49  42  76 VRB3      30.31R
QUANTICO       CLOUDY    49  42  77 E3        30.32R
COLLEGE PARK*  PTSUNNY   50  37  62 N3        30.30S
LEESBURG*      PTSUNNY   46  41  81 N5        30.31S
GAITHERSBURG*  MOSUNNY   46  37  71 NW3       30.32S

$$

MDZ006>007-011-014-191400-
BALTIMORE METRO

CITY           SKY/WX    TMP DP  RH WIND       PRES   REMARKS
BWI AIRPORT    PTSUNNY   48  37  65 CALM      30.29S
MD SCIENCE CTR   N/A     50  36  58 MISG      30.32R
MARTIN STATE   PTSUNNY   48  39  71 CALM      30.32R
ANNAPOLIS      CLOUDY    50  42  74 CALM      30.31R
FORT MEADE*    PTSUNNY   46  37  71 CALM      30.33R

$$

MDZ012-015-019>023-191400-
MARYLAND EASTERN SHORE

CITY           SKY/WX    TMP DP  RH WIND       PRES   REMARKS
OCEAN CITY     CLOUDY    47  42  83 CALM      30.30R
SALISBURY      CLOUDY    48  42  80 CALM      30.30R
BAY BRIDGE AP* CLOUDY    50  43  76 CALM      30.31R
CAMBRIDGE*     CLOUDY    50  45  81 CALM      30.30S
EASTON*        CLOUDY    48  48 100 CALM      30.34R

$$

MDZ017>025-191400-
SOUTHERN MARYLAND

CITY           SKY/WX    TMP DP  RH WIND       PRES   REMARKS
PATUXENT RIVER CLOUDY    49  43  80 N6        30.30R
ST INIGOES     CLOUDY    50  43  77 N3        30.29R
LEONARDTOWN*   CLOUDY    46  41  81 CALM      30.31R

$$

MDZ003>005-191400-
NORTH CENTRAL MARYLAND

CITY           SKY/WX    TMP DP  RH WIND       PRES   REMARKS
FREDERICK*     SUNNY     45  41  87 CALM      30.33S
HAGERSTOWN APT MOSUNNY   50  38  63 NW7       30.30R
WESTMINSTER*   MOSUNNY   52  37  58 N8        30.28S

$$

MDZ501>502-191400-
WESTERN MARYLAND

CITY           SKY/WX    TMP DP  RH WIND       PRES   REMARKS
OAKLAND*       PTSUNNY   46  28  49 NE3       30.29S
CUMBERLAND*    PTSUNNY   46  39  76 CALM      30.35S

$$

VAZ025>031-191400-
SHENANDOAH VALLEY

CITY           SKY/WX    TMP DP  RH WIND       PRES   REMARKS
WINCHESTER*    MOSUNNY   48  36  61 NE3       30.30S
STAUNTON*      CLOUDY    47  40  77 NE3       30.29R

$$

WVZ021-048>050-054>055-191400-
EASTERN WEST VIRGINIA PANHANDLE

CITY           SKY/WX    TMP DP  RH WIND       PRES   REMARKS
MARTINSBURG    MOSUNNY   49  36  61 CALM      30.30S
PETERSBURG*    PTSUNNY   49  45  87 CALM      30.33R

$$

VAZ036>039-050-191400-
CENTRAL FOOTHILLS

CITY           SKY/WX    TMP DP  RH WIND       PRES   REMARKS
CHARLOTTESVILL CLOUDY    48  40  73 NE3       30.28R
CULPEPER*      CLOUDY    50  41  71 CALM      30.30R

$$

VAZ055>057-191400-
NORTH AND CENTRAL PIEDMONT

CITY           SKY/WX    TMP DP  RH WIND       PRES   REMARKS
FREDERICKSBRG* CLOUDY    48  43  81 CALM      30.30R
STAFFORD*      CLOUDY    49  46  90 CALM      30.35R

$$

NCZ024-NYZ072-PAZ021-071-VAZ022-071-191400-
OTHER REGIONAL OBSERVATIONS

CITY           SKY/WX    TMP DP  RH WIND       PRES   REMARKS
NEW YORK CITY  SUNNY     49  35  58 CALM      30.29R
PHILADELPHIA   PTSUNNY   50  37  61 NW3       30.29S
PITTSBURGH     PTSUNNY   48  38  68 N8        30.35R
ROANOKE        CLOUDY    51  40  65 CALM      30.25R
RICHMOND       CLOUDY    49  42  77 NE7       30.27R
RALEIGH        LGT RAIN  46  42  86 NE9       30.17F

$$

ANZ530>537-191400-
MARINE OBSERVATIONS

STATION/POSITION TIME  TEMP    WIND        PRES
                       AIR SEA DIR/SP/G
                 (UTC) (F)     (DEG/KT/KT) (MB)
THOMAS PT LIGHT  1300   48 51  270/  3/  4 1026.8R
BALT KEY BRIDGE  1300   49        CALM     1026.1S
COVE POINT       1300   48      10/  3/  4 1025.9R
LEWISETTA        1300   49 53   50/  4/  5 1025.4R
SOLOMONS ISLAND  1300      52                N/A
PINEY POINT      1300           20/  8/  9   N/A

$$




USA.gov is the U.S. government's official web portal to all federal, state and local government web resources and services.